Zurück zum Katalog

CZ-6A DEB

AktivPO
NORAD 61369·DEBRIS·🇨🇳 China

Gestartet Aug 6, 2024 von Taiyuan Satellite Launch Center

Loading…

Nächste Überflüge (nächste 24 Stunden)

TLE

AktuellSource: Space-Track

Epoche: Sep 13, 2026, 11:22 UTC

1 61369U 24140WJ  26256.47394287  .00000274  00000-0  11149-3 0  9993
2 61369  88.9850 263.1408 0021647 217.1795 142.7899 14.24584832106289

Verfolge CZ-6A DEB in Echtzeit mit AllMySat

Download on the App Store